FW2451 Weather Reports


Display with metric or nautical units.
time (UTC)temp
F
wind
direction
speed
MPH
gust
MPH
rain 1hr
in
rain 24hr
in
rain mn
in
humidity
%
barometer
mb
20260507003044 73 360 5.0 11.0 0.00 0.00 0.00 57 1018.7
20260507001549 75 355 4.0 12.0 0.00 0.00 0.00 56 1018.8
20260507000011 75 14 7.0 14.0 0.00 0.00 0.00 54 1018.7
20260506234509 75 349 3.0 10.0 0.00 0.00 0.00 56 1018.7
20260506233006 76 300 5.0 11.0 0.00 0.00 0.00 53 1018.7
20260506231506 77 338 1.0 10.0 0.00 0.00 0.00 53 1018.9
20260506230004 77 13 4.0 11.0 0.00 0.00 0.00 53 1019.0
20260506224501 77 40 3.0 10.0 0.00 0.00 0.00 52 1019.0
20260506223030 78 42 2.0 12.0 0.00 0.00 0.00 52 1019.2
20260506221525 77 355 2.0 10.0 0.00 0.00 0.00 52 1019.3
20260506220020 77 360 2.0 9.0 0.00 0.00 0.00 52 1019.6
20260506214519 76 360 3.0 9.0 0.00 0.00 0.00 54 1019.8
20260506213013 75 242 2.0 9.0 0.00 0.00 0.00 53 1019.9
20260506211511 74 37 3.0 10.0 0.00 0.00 0.00 55 1020.2
20260506210006 74 55 1.0 11.0 0.00 0.00 0.00 56 1020.3
20260506204505 74 271 2.0 9.0 0.00 0.00 0.00 56 1020.4
20260506203008 73 22 1.0 10.0 0.00 0.00 0.00 56 1020.5
20260506201601 73 26 3.0 10.0 0.00 0.00 0.00 57 1020.8
20260506200058 73 293 1.0 7.0 0.00 0.00 0.00 56 1020.9
20260506194554 71 9 3.0 9.0 0.00 0.00 0.00 58 1020.9
20260506193052 71 40 3.0 8.0 0.00 0.00 0.00 60 1021.3
20260506191548 69 329 1.0 5.0 0.00 0.00 0.00 62 1021.4
20260506190042 67 148 2.0 8.0 0.00 0.00 0.00 64 1021.4
20260506184544 68 324 1.0 5.0 0.00 0.00 0.00 64 1021.5
20260506183041 67 294 2.0 6.0 0.00 0.00 0.00 64 1021.6
20260506181538 66 256 2.0 5.0 0.00 0.00 0.00 65 1021.7
20260506180033 64 324 1.0 6.0 0.00 0.00 0.00 70 1021.7
20260506174530 63 254 3.0 8.0 0.00 0.00 0.00 70 1021.7
20260506173028 63 340 2.0 6.0 0.00 0.00 0.00 72 1021.7
20260506171529 62 9 3.0 6.0 0.00 0.00 0.00 72 1021.8
20260506170058 62 254 2.0 5.0 0.00 0.00 0.00 72 1021.8
20260506164555 62 285 1.0 6.0 0.00 0.00 0.00 73 1021.8
20260506163053 61 10 1.0 4.0 0.00 0.00 0.00 75 1021.9
20260506161547 60 360 1.0 5.0 0.00 0.00 0.00 77 1021.9
20260506160143 60 13 1.0 4.0 0.00 0.00 0.00 79 1021.9
20260506154543 59 23 2.0 5.0 0.00 0.00 0.00 79 1021.8
20260506153043 59 355 2.0 5.0 0.00 0.00 0.00 80 1021.8
20260506151536 58 286 0.0 5.0 0.00 0.00 0.00 81 1021.8
20260506150040 58 355 1.0 4.0 0.00 0.00 0.00 81 1021.8
20260506144552 57 329 1.0 4.0 0.00 0.00 0.00 81 1021.8
20260506143029 57 345 0.0 5.0 0.00 0.00 0.00 81 1021.7
20260506141528 57 309 0.0 4.0 0.00 0.00 0.00 82 1021.8
20260506140040 57 30 0.0 3.0 0.00 0.00 0.00 82 1021.5
20260506134531 57 13 0.0 1.0 0.00 0.00 0.00 82 1021.3
20260506133022 56 13 0.0 1.0 0.00 0.00 0.00 82 1021.1
20260506131523 56 13 0.0 3.0 0.00 0.00 0.00 82 1021.0
20260506130018 56 15 0.0 1.0 0.00 0.00 0.00 81 1020.9
20260506124516 56 15 0.0 2.0 0.00 0.00 0.00 81 1020.7
20260506123024 57 15 0.0 2.0 0.00 0.00 0.00 81 1020.8
20260506121512 57 17 0.0 3.0 0.00 0.00 0.00 81 1020.7
20260506120022 57 19 0.0 3.0 0.00 0.00 0.00 81 1020.6
20260506114518 57 19 0.0 2.0 0.00 0.00 0.00 81 1020.6
20260506113009 57 22 0.0 0.0 0.00 0.00 0.00 82 1020.5
20260506111507 57 251 0.0 0.0 0.00 0.00 0.00 82 1020.4
20260506110005 57 250 0.0 0.0 0.00 0.00 0.00 82 1020.4
20260506104504 57 250 0.0 0.0 0.00 0.00 0.00 82 1020.3
20260506103003 57 250 0.0 1.0 0.00 0.00 0.00 82 1020.3
20260506101601 57 250 0.0 2.0 0.00 0.00 0.00 82 1020.3
20260506100109 57 250 0.0 3.0 0.00 0.00 0.00 82 1020.4
20260506094604 57 244 0.0 3.0 0.00 0.00 0.00 82 1020.4
20260506093057 57 28 1.0 4.0 0.00 0.00 0.00 82 1020.5
20260506091556 57 17 0.0 3.0 0.00 0.00 0.00 81 1020.6
20260506090053 57 15 0.0 3.0 0.00 0.00 0.00 81 1020.4
20260506084554 57 37 1.0 5.0 0.00 0.00 0.00 81 1020.4
20260506083056 57 40 0.0 4.0 0.00 0.00 0.00 80 1020.3
20260506081520 57 318 0.0 3.0 0.00 0.00 0.00 80 1020.4
20260506073016 57 17 1.0 4.0 0.00 0.00 0.00 79 1020.1
20260506071518 58 35 0.0 5.0 0.00 0.00 0.00 79 1020.0
20260506061508 58 360 2.0 6.0 0.00 0.00 0.00 78 1019.5
20260506044558 60 355 2.0 4.0 0.00 0.00 0.00 75 1018.9
20260506043105 60 308 1.0 4.0 0.00 0.00 0.00 73 1018.8
20260506041555 60 360 1.0 4.0 0.00 0.00 0.00 73 1018.7
20260506040055 60 355 0.0 4.0 0.00 0.00 0.00 73 1018.5
20260506034608 60 11 2.0 5.0 0.00 0.00 0.00 73 1018.3
20260506033046 60 24 1.0 5.0 0.00 0.00 0.00 73 1017.9
20260506031551 60 22 1.0 4.0 0.00 0.00 0.00 73 1017.8
20260506030144 60 10 2.0 5.0 0.00 0.00 0.00 73 1017.6
20260506024549 60 10 1.0 3.0 0.00 0.00 0.00 73 1017.3
20260506023044 61 18 0.0 4.0 0.00 0.00 0.00 73 1017.3
20260506021540 61 9 1.0 6.0 0.00 0.00 0.00 73 1017.2
20260506020040 61 38 2.0 8.0 0.00 0.00 0.00 72 1017.2
20260506014510 61 32 0.0 2.0 0.00 0.00 0.00 72 1017.2
20260506013010 62 38 0.0 2.0 0.00 0.00 0.00 71 1017.2
20260506011512 62 38 0.0 2.0 0.00 0.00 0.00 69 1017.2
20260506010017 62 38 0.0 2.0 0.00 0.00 0.00 69 1017.1
20260506004506 62 293 2.0 4.0 0.00 0.00 0.00 69 1017.1